Wind_Speed
35 36 37 35 30 26 25 24 21 18 16 16 17 18 20 18 20 18 16 14 14 13 11 10 11 10 10 10 10 10 9 10 7 6 7 8 9 12 12 11 10 9 8
35 34 36 37 32 29 27 25 24 22 19 18 16 17 18 21 23 23 19 17 17 16 16 14 14 12 12 12 12 12 11 12 11 9 7 10 11 13 12 13 12 12 11
30 33 32 35 36 34 31 27 25 23 23 21 20 20 19 18 16 22 21 20 19 19 18 18 17 16 16 15 14 15 15 15 14 12 9 9 13 13 16 16 15 15 14
25 28 30 33 35 36 33 31 28 27 24 25 23 21 21 19 19 20 21 21 21 21 20 20 19 18 17 17 17 16 16 16 16 17 15 11 11 12 17 19 18 19 17
20 26 32 32 34 34 33 31 31 29 28 26 25 24 23 24 24 23 21 21 23 23 22 21 20 20 18 17 18 17 15 14 15 16 15 14 12 14 16 18 23 20 18
6 12 22 26 26 28 29 28 29 31 30 28 29 29 28 28 28 27 25 25 24 24 23 22 22 22 21 19 18 19 17 16 16 15 15 12 15 14 15 17 17 15 6
8 5 7 10 7 9 12 19 24 28 30 30 30 30 34 33 30 27 24 25 25 27 24 22 21 22 20 17 16 18 18 17 17 16 16 16 14 13 13 14 18 20 16
8 16 11 12 12 8 3 5 9 18 24 27 29 28 28 30 29 28 27 25 24 23 23 22 20 16 18 18 18 16 14 13 14 14 13 13 13 12 12 11 12 18 17
10 13 15 14 8 9 8 7 10 14 15 22 27 27 25 27 28 31 28 23 23 24 23 18 19 19 17 18 20 20 17 14 13 13 12 11 9 9 7 8 11 10 5
7 11 14 17 16 13 12 11 13 14 14 15 17 20 19 20 22 23 23 20 19 19 19 19 19 20 18 16 15 16 17 16 13 9 5 3 2 2 2 4 7 8 5
6 10 9 10 14 15 15 15 14 9 7 6 5 6 7 9 11 12 11 14 14 11 12 12 12 13 12 11 11 13 14 13 13 10 7 4 3 4 4 4 2 4 8
0 4 4 6 7 8 8 6 5 6 6 6 6 6 5 4 3 4 6 6 6 6 7 8 6 6 6 8 9 9 11 10 10 9 6 7 7 7 8 8 7 5 1
7 9 9 10 11 10 10 8 7 6 5 7 7 9 7 5 4 0 4 5 5 5 3 2 3 3 3 2 1 3 2 3 8 10 6 6 5 5 5 8 10 9 9
15 14 12 10 9 8 8 7 8 9 7 6 7 7 7 8 9 11 8 5 4 5 9 9 7 8 10 11 10 9 7 7 8 7 7 7 7 7 8 9 12 14 14
13 12 9 8 7 7 8 10 10 9 8 8 7 7 6 9 9 7 8 9 10 10 7 7 7 8 10 8 8 8 6 6 6 6 8 6 7 9 9 8 6 5 5
10 9 7 6 6 7 10 12 12 9 8 8 7 5 6 6 5 8 11 10 10 8 5 6 5 6 6 6 7 7 6 6 7 7 8 7 6 4 3 3 2 2 2
8 8 9 8 9 9 8 8 11 9 7 5 5 5 5 4 4 5 7 8 7 7 7 5 6 6 5 6 6 5 6 6 7 8 8 7 5 4 2 2 3 4 4
7 6 7 8 7 7 5 3 5 6 6 6 7 7 6 5 6 5 3 3 4 6 7 6 6 5 6 7 7 7 8 7 6 4 3 3 2 3 1 1 2 3 7
7 6 6 6 6 5 5 6 5 4 4 5 5 5 5 5 5 5 3 3 4 5 6 6 7 7 5 5 5 5 5 5 6 4 5 4 4 1 1 2 2 5 7
6 6 6 7 7 6 6 6 6 6 6 5 4 3 4 4 3 4 4 5 6 5 5 4 3 4 3 4 4 5 6 5 4 5 5 3 3 2 1 2 2 4 5
5 6 6 7 8 7 6 5 4 3 4 4 3 3 3 2 2 3 3 4 3 2 2 1 1 2 3 3 4 4 4 4 4 5 5 4 2 3 2 4 4 4 3
5 6 7 6 6 6 6 5 5 5 4 4 4 4 3 5 4 4 5 6 5 4 4 4 4 4 2 2 2 3 4 5 4 4 4 3 4 4 2 2 4 4 5
7 7 10 9 8 7 7 8 8 8 8 8 7 7 7 8 8 8 7 6 7 6 6 6 6 7 6 4 4 3 2 2 2 3 4 4 5 5 3 3 4 5 6
10 7 7 11 11 9 12 15 14 11 10 10 9 10 10 9 8 8 10 9 7 7 7 6 5 5 6 7 6 6 6 5 4 4 7 6 5 5 6 6 6 6 6
14 12 10 9 9 10 11 10 15 16 16 15 15 15 14 14 14 13 12 13 12 10 10 9 8 7 6 6 7 6 5 6 7 7 8 8 8 6 7 6 6 5 5
18 17 15 13 12 12 12 11 14 15 17 17 17 17 18 18 19 18 17 17 18 16 14 13 13 12 11 11 10 10 10 10 10 11 11 11 10 10 9 10 9 8 8
Wind_Direction
223 223 225 226 229 231 229 224 228 237 228 228 223 237 244 244 239 240 244 243 247 254 262 268 263 257 260 271 267 261 261 251 247 282 259 257 242 223 228 235 241 239 233
227 225 225 230 227 228 227 230 233 234 233 230 232 243 245 255 249 238 244 246 246 253 255 258 262 261 264 266 263 263 252 257 251 264 259 252 232 231 234 241 241 238 237
225 231 229 231 228 229 230 231 237 240 236 237 238 243 248 248 240 229 242 250 255 254 255 256 260 262 260 261 266 266 269 264 259 260 271 246 244 240 233 236 236 237 236
231 232 230 231 227 226 232 237 240 242 242 240 239 244 242 242 243 240 246 251 248 250 256 255 255 257 262 265 264 270 275 270 267 254 258 253 245 245 240 240 238 236 235
233 233 234 236 235 231 233 240 243 243 244 244 243 246 248 250 250 247 250 254 254 254 254 251 251 252 259 261 263 261 261 261 260 250 251 252 241 236 230 243 239 239 237
170 225 227 229 238 237 240 240 244 243 244 248 249 251 250 253 252 252 256 259 259 254 253 255 259 259 258 256 256 256 254 256 257 253 257 254 259 258 267 255 239 224 244
142 171 176 180 203 226 238 234 241 247 248 251 253 255 254 257 255 253 255 258 259 256 255 258 263 262 256 251 249 249 252 255 257 260 262 267 273 274 266 252 242 233 236
240 225 195 193 198 192 232 266 266 251 250 251 251 254 256 257 254 254 253 253 252 251 252 254 257 268 250 246 243 244 249 255 258 257 258 265 267 266 259 255 248 251 247
236 238 213 193 199 205 231 263 293 278 265 253 254 250 252 259 260 256 251 247 249 251 250 249 258 259 250 239 238 235 240 245 254 261 260 261 269 277 271 252 240 233 211
298 270 249 247 234 246 258 247 258 268 270 265 252 250 252 249 253 252 250 246 249 252 247 247 254 259 260 259 246 241 242 245 239 233 216 217 257 319 316 261 248 227 177
302 275 235 220 231 245 250 237 240 242 234 229 221 222 235 235 242 252 264 261 255 263 267 263 263 271 275 275 271 263 265 270 242 223 212 192 153 108 88 68 45 216 195
340 119 144 162 165 157 160 163 174 173 149 144 151 142 156 168 178 205 228 237 245 248 259 265 278 298 288 271 258 257 260 257 208 190 164 127 105 89 87 82 71 69 186
152 135 132 128 118 115 112 117 117 109 117 130 136 128 125 109 103 345 249 251 240 239 207 160 90 54 13 347 293 310 311 186 173 154 163 160 134 122 87 78 81 86 85
142 134 132 128 118 106 101 108 98 85 89 99 108 128 122 107 93 96 91 116 133 162 133 116 103 92 90 82 81 89 107 132 149 165 172 157 140 121 104 107 103 96 95
136 131 125 126 120 106 99 94 93 87 88 94 102 113 114 112 97 94 120 111 123 124 127 120 116 111 103 109 112 114 119 132 142 151 158 146 140 134 137 128 123 93 99
138 138 139 136 128 121 112 102 97 98 97 104 103 92 99 98 100 120 130 142 135 129 108 99 105 115 119 120 114 107 114 121 126 136 144 141 154 147 181 184 168 173 105
151 145 143 139 136 134 126 120 115 106 104 104 106 97 98 85 84 109 111 116 121 117 125 134 138 123 121 128 124 116 118 113 117 124 134 147 165 164 173 207 224 230 190
143 143 145 143 143 139 136 126 132 135 126 105 101 116 115 108 117 110 91 103 117 119 128 135 124 123 136 137 129 120 128 126 126 131 162 167 180 176 140 169 191 173 168
136 138 139 138 137 140 134 141 149 139 131 138 136 137 132 138 133 128 104 99 99 101 116 124 127 133 141 145 135 132 142 144 142 142 145 138 153 140 155 126 157 185 183
121 127 129 145 156 153 151 138 129 131 135 136 134 140 152 154 162 166 144 125 116 121 123 130 143 150 156 164 158 160 163 164 175 176 165 160 166 161 179 192 185 166 190
147 149 151 151 156 161 162 155 147 138 146 154 155 159 169 175 191 201 207 195 175 149 124 128 135 183 187 189 187 195 195 188 186 196 196 175 185 196 228 218 200 200 198
169 174 186 187 189 197 205 216 227 238 238 224 211 203 196 207 200 196 212 212 212 225 239 245 240 222 206 189 191 205 203 188 185 181 180 190 198 193 177 188 201 193 181
205 205 202 208 216 229 240 248 255 257 247 240 233 229 227 225 223 221 215 210 219 236 252 268 255 227 226 223 227 235 237 226 212 201 200 214 199 209 222 231 220 217 218
212 205 200 218 225 240 268 251 247 252 253 252 249 249 251 253 245 238 233 231 237 246 249 239 220 223 235 232 233 233 231 229 238 237 228 225 224 238 236 232 238 238 232
222 228 234 243 256 268 295 258 241 249 255 260 273 272 267 250 246 239 233 233 235 234 232 233 231 229 225 214 213 217 216 214 218 217 218 216 224 236 228 230 235 242 235
233 238 243 246 254 261 267 266 249 251 255 259 267 273 270 264 251 244 241 236 236 238 234 237 242 244 245 244 240 237 235 232 226 219 216 221 230 237 240 234 220 211 218
Height
807 811 816 820 824 828 831 833 835 837 839 840 843 845 846 848 850 851 853 854 854 855 855 855 856 857 857 857 857 857 856 856 856 852 852 851 850 850 851 852 853 852 852
804 807 810 815 819 823 826 829 832 834 836 837 838 840 842 844 846 847 848 849 850 851 852 853 853 854 854 854 854 854 854 854 853 851 850 849 849 849 850 851 851 851 851
799 803 804 808 813 817 821 825 829 830 832 833 834 836 837 839 840 842 844 845 845 846 847 848 849 849 850 850 851 851 850 850 849 849 848 848 847 847 847 848 848 849 849
794 798 802 804 806 810 815 820 823 826 828 830 832 833 834 835 837 839 840 841 842 843 843 843 844 844 845 846 847 846 846 846 846 845 845 845 844 844 845 845 845 845 847
789 794 796 800 804 806 810 814 817 820 823 825 827 829 831 832 833 834 836 837 838 838 838 838 838 839 839 840 841 841 841 841 841 841 842 842 840 839 838 838 840 841 843
787 793 795 797 801 804 806 808 811 814 817 820 823 825 827 827 828 830 831 832 833 833 833 833 833 833 833 834 835 836 837 836 836 836 837 837 836 837 836 836 837 839 842
783 791 793 791 795 801 804 804 806 809 811 812 815 818 819 821 822 823 825 826 826 827 828 828 828 828 828 829 830 831 832 832 831 832 832 832 832 832 832 831 832 833 833
782 789 788 792 797 797 801 802 803 805 805 807 808 810 812 813 816 818 819 821 821 821 822 824 824 823 823 824 826 827 827 827 827 827 828 828 828 828 828 829 829 828 829
783 786 788 791 793 793 793 798 799 801 800 801 804 805 806 808 809 811 813 814 815 816 817 818 819 819 819 820 821 821 822 823 823 823 823 823 824 825 825 825 826 826 826
781 782 783 787 790 791 791 791 794 797 797 797 797 799 800 801 803 804 806 808 809 811 812 812 813 814 813 815 816 816 817 819 820 820 821 822 822 822 823 823 823 824 825
780 783 784 784 787 789 790 791 793 792 792 794 794 794 797 799 801 800 802 805 806 807 810 810 810 811 811 811 813 814 815 817 818 820 821 821 822 822 822 822 822 822 822
780 782 782 784 786 787 789 789 791 793 791 790 791 794 795 796 797 797 800 802 804 805 807 807 808 808 808 809 809 810 811 813 816 819 821 822 823 823 822 820 822 822 822
782 783 786 788 788 790 789 790 791 790 793 794 794 791 793 795 795 796 797 800 802 804 805 806 807 807 807 809 809 808 811 813 815 819 821 820 821 824 824 823 822 823 823
785 786 788 790 789 791 791 791 791 792 795 795 794 796 795 795 795 792 795 800 801 804 806 805 807 807 805 809 812 813 815 817 818 819 822 823 824 824 825 826 827 827 826
786 787 789 790 791 791 793 793 793 795 796 797 797 799 801 797 794 796 800 799 803 804 807 807 807 809 807 811 814 815 816 817 818 820 823 824 826 825 828 828 829 830 829
787 789 791 791 792 794 794 796 795 798 799 799 799 800 801 803 803 801 799 803 803 804 806 807 811 811 812 815 816 817 817 818 818 819 822 825 828 829 830 831 831 832 832
789 790 792 792 794 796 798 799 797 800 800 801 802 801 802 803 804 805 805 805 805 804 807 811 812 812 814 816 816 818 819 820 822 822 824 825 826 828 830 832 833 832 832
790 792 794 795 796 797 799 799 798 800 801 803 803 804 804 806 806 808 810 810 809 808 808 810 811 813 814 815 817 817 819 819 821 825 828 827 828 828 828 830 832 832 832
792 793 794 795 797 799 799 801 803 802 802 803 803 806 806 808 808 809 810 812 812 811 812 812 812 813 817 818 818 817 819 820 819 823 824 826 828 829 829 829 831 831 833
794 796 796 798 800 802 803 803 803 803 804 805 805 806 805 807 810 810 811 812 812 814 814 814 815 815 816 817 817 818 818 819 821 823 823 826 826 827 828 829 831 830 832
795 797 799 799 801 802 803 804 805 805 806 805 805 807 808 809 809 810 812 813 813 814 814 816 816 817 817 817 817 819 819 819 820 822 823 823 826 827 827 827 828 829 831
798 799 800 800 801 802 803 804 805 805 804 805 805 807 807 808 810 809 811 813 814 814 815 817 816 816 817 817 818 819 820 820 820 820 821 823 825 827 827 826 827 828 829
797 797 798 798 799 800 801 801 802 803 803 803 804 804 804 806 808 809 810 812 813 814 814 814 815 814 815 816 818 819 820 820 820 820 822 823 824 825 825 827 827 828 829
794 795 795 796 798 799 799 799 801 801 802 802 801 801 801 802 803 805 809 809 810 812 814 814 814 814 815 815 815 817 820 819 819 821 823 823 822 822 824 825 826 827 828
789 790 791 791 792 793 792 792 793 795 795 795 795 796 797 799 801 804 806 807 809 810 811 811 811 813 815 815 815 816 816 817 818 820 821 820 821 822 822 822 823 824 825
786 787 788 789 789 790 789 789 789 789 790 790 791 792 794 796 798 800 802 804 805 806 807 809 811 812 812 812 812 813 815 816 816 816 816 816 818 820 820 820 820 821 822